Wetbulb
28.51 27.29 26.08 25.03 24.20 23.72 23.23 23.52 22.97 22.57 22.18 21.41 21.05 20.42 20.39 20.70 21.46 21.07 21.08 21.13 20.61 21.29 22.29 22.85 23.43 24.51 24.44 25.41 25.70 25.44 26.08 25.27 21.63 25.52 30.57 36.38 35.48 39.65 44.52 46.33 45.27 45.76 45.82
27.32 25.60 24.46 23.66 22.64 22.14 22.33 21.99 21.29 20.11 20.39 19.62 18.90 18.18 18.35 18.50 18.82 18.16 17.48 17.93 17.34 17.12 18.14 18.57 19.54 21.36 21.14 22.72 23.11 23.51 23.39 23.93 23.01 21.77 29.44 31.76 33.50 36.79 44.05 43.54 45.36 46.27 46.41
24.95 23.79 22.61 21.94 21.44 21.01 20.29 19.81 19.06 18.53 18.10 17.77 16.89 16.30 16.11 16.06 15.85 16.03 15.52 15.19 15.16 15.16 15.48 15.53 16.48 17.48 18.38 19.97 20.15 20.46 21.65 22.22 22.86 21.90 24.25 32.03 32.91 37.07 42.47 43.56 43.21 43.01 43.91
23.32 22.43 21.70 21.16 20.19 19.29 18.29 17.49 16.63 16.60 15.42 15.53 15.26 14.48 14.36 14.52 14.72 14.52 14.53 14.51 14.99 15.95 16.40 16.63 16.98 17.02 17.30 17.69 19.21 19.65 20.77 19.93 20.99 20.90 22.88 29.09 30.38 37.64 41.65 40.14 40.41 41.03 40.70
21.85 20.98 20.47 19.49 18.07 16.79 15.83 15.55 14.77 14.11 13.93 13.56 12.63 13.12 14.07 13.97 14.11 13.96 14.81 15.23 15.61 16.32 16.97 17.49 18.43 18.58 19.72 20.78 20.16 19.95 20.12 20.14 19.86 21.59 23.93 27.22 29.05 36.06 37.17 39.77 35.12 36.64 37.49
20.76 19.70 18.26 16.33 14.93 14.32 13.39 12.35 11.82 12.04 12.10 11.65 11.88 12.46 12.51 13.40 15.27 16.98 17.81 17.18 16.62 16.13 16.47 17.35 18.05 18.90 20.03 22.37 23.61 24.58 24.55 21.49 19.77 20.43 21.73 23.80 27.04 33.40 37.60 36.98 35.59 34.14 32.19
18.03 16.47 14.52 13.77 12.06 11.90 10.67 9.96 10.02 9.99 10.39 10.52 11.64 11.89 11.22 11.91 15.43 17.79 18.37 16.96 17.12 17.40 17.59 17.95 18.48 20.12 20.67 21.33 22.68 24.08 24.75 26.12 27.03 25.11 23.17 24.57 26.72 29.19 35.49 35.55 34.60 32.78 33.32
15.98 12.53 12.46 11.20 10.01 9.49 8.58 8.34 8.82 9.90 9.53 10.04 9.73 9.45 10.82 12.08 15.46 16.58 17.95 17.33 17.21 17.15 17.76 18.06 18.02 19.24 21.09 21.54 22.28 22.33 23.15 23.58 24.24 24.96 25.34 26.98 30.46 32.17 32.43 36.03 35.36 33.07 32.55
13.06 12.32 11.22 10.08 7.67 7.15 4.74 6.91 8.00 8.58 8.36 7.71 9.65 9.41 8.88 9.18 13.86 16.64 17.67 16.49 16.75 17.75 18.65 18.82 18.77 18.72 20.40 22.18 21.14 21.00 23.27 25.24 26.63 27.06 27.69 29.14 33.73 34.27 36.93 34.08 32.34 31.95 30.86
13.48 12.16 10.61 8.31 4.67 3.99 5.65 5.30 7.75 6.24 7.36 8.83 8.91 9.02 8.99 9.06 13.44 16.74 18.05 17.57 16.59 17.26 18.66 19.60 20.46 20.19 22.22 23.73 21.85 22.13 21.99 24.06 24.73 24.84 26.09 27.97 30.82 34.61 34.94 35.08 33.58 30.65 30.89
12.10 9.55 7.50 6.35 3.99 3.96 3.77 5.39 4.99 5.06 6.64 5.59 6.98 9.45 11.17 13.52 13.56 17.45 19.55 18.41 18.23 18.11 17.83 17.13 18.53 20.30 21.16 22.55 23.65 22.16 24.44 26.32 25.54 24.61 26.11 27.28 31.12 31.89 33.40 35.40 34.66 32.45 31.27
8.62 7.46 5.26 2.66 5.32 4.44 0.30 3.49 3.45 4.88 5.62 6.63 8.24 11.06 13.61 13.91 15.50 17.62 20.19 21.02 21.07 16.20 15.56 16.63 17.37 20.15 21.83 23.37 22.91 24.45 26.16 27.23 27.87 25.70 24.04 27.70 29.67 31.07 32.90 34.07 34.62 34.81 35.26
5.97 2.98 2.22 2.42 3.35 2.78 2.66 4.03 7.68 6.27 7.19 8.07 10.42 10.53 11.11 13.02 15.17 18.02 19.52 20.03 18.66 15.59 15.77 17.11 17.20 18.25 20.95 20.58 22.53 23.97 24.05 23.98 25.06 26.63 25.92 26.09 30.94 32.63 33.06 33.69 34.69 35.63 35.72
3.08 3.53 3.60 4.05 3.90 3.38 5.95 6.91 5.96 7.61 7.46 9.33 10.08 9.49 10.63 12.28 14.25 17.47 17.71 16.62 15.85 15.09 15.46 11.00 14.25 16.23 17.87 20.95 21.25 23.19 24.31 24.91 25.29 25.69 28.76 28.95 31.15 31.95 31.91 34.32 34.10 34.47 33.52
5.03 4.99 4.83 4.70 4.31 4.36 5.27 5.31 6.87 8.91 9.94 10.28 10.39 10.89 10.02 10.75 14.13 18.03 17.61 14.87 13.52 14.69 10.63 8.60 9.53 11.63 12.20 13.13 14.31 15.82 18.05 19.94 22.55 27.12 29.48 29.82 30.16 31.59 32.66 34.37 34.17 33.56 32.62
4.40 3.82 4.12 3.97 4.01 4.00 4.53 5.31 5.38 7.60 10.10 11.46 12.69 13.37 12.54 15.62 17.44 17.76 18.02 16.55 15.47 14.97 6.11 5.66 6.29 8.03 9.74 10.53 10.97 12.22 14.57 15.73 17.58 19.51 26.43 31.14 30.62 31.79 32.20 33.45 33.52 33.11 33.78
4.89 3.12 2.24 2.65 2.77 2.00 1.83 3.13 3.39 4.41 5.69 7.29 9.55 11.61 13.49 14.61 15.65 15.81 16.05 14.50 12.98 11.15 4.07 3.43 5.11 6.51 8.11 9.89 10.10 10.63 11.44 14.00 15.32 15.82 18.73 21.66 31.22 32.36 32.50 32.49 32.69 33.43 38.92
3.09 1.99 2.25 1.89 0.67 -0.58 -0.57 -1.35 -1.58 -1.99 -2.26 0.57 4.47 8.80 10.46 12.60 13.28 13.53 13.54 9.63 4.34 5.65 4.39 3.79 3.46 6.43 6.69 8.84 9.41 9.72 10.61 13.04 13.42 13.52 15.08 18.20 21.46 26.29 32.12 32.18 33.23 36.95 40.92
0.11 -1.05 -0.72 -1.70 -1.76 -2.23 -2.03 -3.12 -2.72 -3.45 -2.85 -2.63 -0.34 3.65 2.64 9.31 9.91 10.08 9.79 3.24 2.02 2.19 2.64 3.71 4.88 6.39 6.78 8.19 9.32 9.77 9.48 11.60 11.77 11.53 12.59 14.48 17.41 19.84 29.55 33.37 36.93 38.05 39.68
-0.25 -2.68 -2.24 -2.79 -4.52 -3.43 -3.54 -2.94 -3.15 -4.01 -3.36 -3.83 -2.94 -2.10 -1.19 2.37 0.95 1.37 2.25 2.19 1.87 1.99 2.93 3.47 4.71 6.70 7.24 8.53 9.53 9.90 9.10 11.62 10.65 9.83 10.25 11.98 13.73 15.00 31.82 35.82 36.60 38.09 39.56
-1.65 -4.55 -4.12 -3.47 -3.81 -4.24 -5.00 -5.32 -5.15 -5.18 -5.48 -5.51 -4.88 -6.07 7.83 -2.76 -1.86 -0.74 0.50 1.11 1.04 1.15 2.16 3.30 4.70 6.61 7.60 9.23 10.29 10.09 9.40 11.53 10.13 9.19 9.38 10.83 12.06 14.81 29.30 37.06 35.19 37.63 38.81
-2.79 -4.41 -4.22 -4.68 -5.18 -5.95 -7.45 -6.85 -6.50 -6.12 -6.48 -6.76 -6.00 -5.11 0.91 -3.71 -3.57 -3.07 -1.11 -0.46 0.20 1.29 2.74 3.70 4.64 6.80 8.19 8.42 10.89 10.19 9.58 11.17 9.22 8.59 8.66 10.19 11.98 14.91 20.20 35.08 35.23 36.69 36.47
-3.94 -5.11 -5.73 -5.73 -6.24 -10.49 -8.79 -8.77 -7.09 -6.58 -6.47 -7.67 -7.76 -7.05 -6.57 -6.09 -6.21 -4.95 -3.62 -2.20 -1.42 -0.05 1.66 3.57 4.42 5.93 7.97 8.97 12.74 11.78 10.43 11.84 9.59 8.96 8.49 9.78 11.26 14.33 18.76 32.57 34.74 35.19 36.42
-3.21 -3.79 -5.28 -6.78 -6.88 -6.40 -7.66 -7.84 -7.96 -11.68 -8.98 -7.99 -8.31 -8.57 -8.06 -8.62 -7.30 -6.48 -4.97 -3.72 -3.36 -1.02 1.12 2.81 4.22 5.31 6.38 8.57 12.82 12.67 12.63 14.73 11.13 9.60 10.00 9.74 10.68 12.74 15.99 30.85 36.03 35.89 36.59
-3.34 -4.54 -5.50 -6.82 -7.82 -7.27 -10.04 -8.17 -7.85 -9.10 -9.00 -7.98 -8.63 -8.96 -9.45 -8.24 -7.87 -7.02 -6.03 -5.68 -5.63 -3.55 -0.95 1.56 3.73 5.06 6.88 9.13 12.93 12.61 12.65 15.10 11.53 10.41 10.31 10.16 9.69 10.45 12.37 23.58 34.92 35.93 35.93
-4.66 -5.59 -7.16 -8.99 -9.57 -10.06 -8.41 -7.35 -9.06 -8.60 -9.62 -8.92 -9.43 -10.14 -10.28 -9.93 -9.16 -8.62 -8.22 -8.33 -7.78 -6.58 -3.29 0.34 3.02 4.69 7.20 9.72 13.70 14.13 12.97 15.51 12.76 10.83 10.37 9.55 8.42 8.14 9.64 11.61 15.50 27.81 35.65
MSLP
1015.74 1016.98 1017.90 1018.43 1018.96 1019.40 1019.64 1020.04 1020.11 1020.11 1020.10 1019.86 1019.53 1019.09 1018.98 1018.71 1018.67 1017.98 1017.13 1016.42 1016.06 1015.52 1015.21 1014.65 1013.55 1013.24 1012.20 1011.53 1011.00 1010.17 1009.12 1008.36 1006.66 1004.64 1004.22 1002.42 1001.28 1000.30 999.10 997.93 997.81 997.54 996.97
1015.02 1016.17 1017.15 1017.93 1018.29 1018.72 1018.85 1019.28 1019.65 1019.67 1019.60 1019.40 1019.30 1019.07 1018.63 1018.37 1017.94 1017.59 1016.94 1016.42 1015.84 1014.93 1014.13 1013.92 1012.93 1012.42 1011.31 1010.82 1010.07 1009.08 1008.36 1007.80 1006.64 1004.46 1003.10 1001.72 1000.68 999.58 997.57 996.80 996.62 996.39 996.02
1014.51 1015.48 1016.54 1017.13 1017.59 1018.01 1018.53 1019.04 1019.06 1019.16 1018.94 1018.81 1018.87 1018.86 1018.40 1017.86 1017.49 1016.86 1016.30 1015.72 1014.98 1014.37 1013.58 1013.00 1012.33 1011.71 1010.60 1009.89 1009.20 1008.34 1007.67 1007.07 1006.04 1004.66 1002.79 1001.17 999.61 998.88 996.07 995.73 995.46 995.38 995.10
1013.87 1015.02 1015.79 1016.51 1016.86 1017.59 1017.79 1018.14 1018.27 1018.36 1018.56 1018.64 1018.41 1017.96 1017.38 1016.77 1016.61 1016.14 1015.42 1014.63 1013.84 1013.04 1012.20 1011.55 1010.98 1010.34 1009.60 1008.83 1008.13 1007.43 1006.84 1006.08 1005.09 1003.97 1002.52 1000.17 999.03 997.28 995.23 994.91 994.61 994.32 993.87
1013.40 1014.47 1015.41 1016.34 1016.87 1017.53 1017.95 1017.95 1017.94 1017.86 1017.90 1018.03 1017.71 1017.43 1016.93 1016.32 1015.86 1015.37 1014.50 1013.52 1012.47 1011.24 1010.42 1009.76 1009.10 1008.55 1008.07 1007.53 1006.85 1006.14 1005.63 1004.69 1003.64 1002.36 1000.80 999.60 997.89 996.11 994.56 994.42 994.53 994.24 994.14
1013.19 1014.24 1015.28 1015.93 1016.71 1017.25 1017.59 1017.85 1017.77 1017.52 1017.52 1017.73 1017.35 1016.84 1016.43 1016.03 1015.59 1014.85 1013.76 1012.39 1011.19 1009.95 1008.68 1008.03 1007.45 1006.87 1006.32 1005.65 1005.01 1004.43 1003.74 1002.86 1001.90 1001.16 1000.17 998.56 996.95 996.04 994.44 994.16 994.09 994.04 993.54
1012.75 1013.87 1014.92 1015.78 1016.37 1016.88 1017.31 1017.49 1017.40 1017.63 1017.51 1017.02 1016.40 1016.05 1015.78 1015.19 1014.64 1013.97 1013.12 1011.80 1010.20 1008.74 1007.75 1006.79 1005.88 1005.24 1004.60 1003.93 1003.17 1002.49 1001.71 1001.04 1000.15 999.52 998.43 997.59 996.82 995.80 994.86 994.13 994.13 993.54 993.23
1012.33 1013.08 1014.10 1014.83 1015.81 1016.47 1016.89 1017.08 1017.28 1017.07 1016.75 1016.19 1015.93 1015.61 1014.76 1013.97 1013.78 1013.07 1011.94 1010.81 1009.31 1007.96 1006.82 1005.78 1004.73 1003.83 1003.06 1002.24 1001.53 1000.75 999.87 999.17 998.68 998.12 997.30 996.65 995.81 995.25 994.85 993.95 993.72 993.38 992.84
1012.40 1013.27 1014.10 1014.91 1015.32 1015.83 1016.55 1016.84 1016.72 1016.38 1016.18 1016.01 1015.54 1015.13 1014.49 1013.65 1013.19 1012.01 1010.77 1009.84 1008.08 1006.59 1005.53 1004.48 1003.48 1002.33 1001.60 1000.90 999.85 999.02 997.88 996.83 996.59 996.26 995.87 995.53 994.66 994.01 993.42 993.36 993.03 993.09 991.97
1012.16 1013.36 1014.45 1015.35 1015.88 1015.78 1015.76 1016.24 1016.47 1016.48 1016.17 1015.79 1015.02 1014.58 1013.95 1013.17 1012.36 1010.93 1009.85 1008.48 1006.82 1005.19 1003.83 1002.59 1001.73 1000.69 999.85 999.01 998.20 997.40 995.97 995.23 994.69 994.31 994.09 993.82 993.36 992.43 992.26 992.51 992.59 992.46 992.01
1011.41 1012.96 1014.04 1015.24 1015.56 1015.69 1015.50 1015.56 1016.09 1016.26 1015.79 1015.42 1014.78 1013.97 1013.33 1012.23 1011.21 1009.89 1008.65 1007.27 1005.88 1003.87 1002.62 1001.52 1000.44 999.41 998.29 997.42 996.71 995.91 994.63 994.22 993.33 992.97 992.70 992.19 991.68 991.28 990.98 990.84 991.19 991.53 991.04
1011.67 1012.93 1014.09 1014.77 1015.13 1014.91 1015.12 1014.90 1015.40 1015.68 1015.25 1014.74 1014.20 1012.98 1012.05 1011.44 1010.44 1009.08 1007.48 1006.29 1005.00 1003.61 1002.10 1000.88 999.56 998.14 996.75 995.56 994.85 994.26 993.55 992.71 991.64 991.46 991.31 990.35 989.73 989.64 989.61 989.61 989.45 989.45 989.90
1011.61 1012.58 1013.65 1014.12 1014.65 1014.60 1014.49 1014.33 1014.25 1014.66 1014.55 1014.34 1013.50 1012.56 1011.59 1010.71 1009.61 1008.48 1006.91 1005.46 1004.53 1003.14 1001.87 1000.34 999.13 997.42 994.96 994.28 993.46 992.75 992.31 991.73 990.75 989.59 989.22 989.00 988.13 988.24 988.82 989.08 988.68 988.98 988.77
1011.55 1012.42 1013.11 1013.78 1014.08 1014.21 1013.60 1013.83 1013.96 1014.18 1014.11 1013.64 1012.95 1012.46 1011.38 1010.24 1008.95 1007.69 1006.02 1005.17 1004.24 1002.86 1001.41 1000.54 998.89 997.14 995.37 993.68 992.95 991.97 991.01 990.44 989.65 988.77 987.73 987.74 987.59 987.04 987.16 987.78 987.75 987.73 987.41
1010.70 1011.56 1012.18 1013.04 1013.38 1013.41 1013.35 1013.56 1013.57 1013.83 1013.77 1013.01 1012.74 1012.22 1010.94 1009.99 1008.98 1007.73 1006.14 1005.24 1004.49 1003.03 1001.75 1000.52 999.02 997.36 996.09 994.72 993.72 992.54 991.45 990.59 989.09 987.40 986.85 986.68 986.39 986.20 985.85 985.72 985.54 985.57 985.22
1009.92 1011.16 1011.77 1012.82 1013.20 1013.19 1013.32 1013.59 1013.77 1013.61 1013.33 1013.25 1013.01 1012.08 1011.03 1010.15 1009.10 1007.94 1006.70 1005.88 1005.13 1003.54 1002.24 1000.87 999.67 998.46 996.97 995.47 994.08 992.93 991.87 990.85 989.61 988.09 986.28 985.16 984.80 984.88 984.55 984.32 984.16 983.22 982.82
1008.86 1010.23 1011.02 1012.29 1013.00 1013.02 1013.57 1013.71 1013.49 1013.42 1013.45 1013.61 1013.43 1012.28 1011.07 1010.45 1009.46 1008.41 1007.47 1006.62 1005.69 1003.98 1002.68 1001.70 1000.58 999.23 997.73 996.22 994.76 993.68 992.20 991.05 990.45 988.87 987.60 985.78 983.88 983.22 982.81 982.74 982.42 982.65 981.49
1009.07 1009.73 1010.53 1011.85 1012.49 1013.11 1013.54 1013.81 1014.12 1013.91 1013.93 1013.76 1013.56 1012.28 1011.34 1010.77 1009.92 1008.99 1008.20 1007.41 1006.06 1004.22 1003.29 1002.41 1001.27 999.74 998.25 996.50 995.02 993.65 992.30 990.76 989.48 988.67 987.46 985.97 984.81 983.73 982.30 981.44 980.95 980.28 979.26
1009.45 1009.79 1010.73 1011.85 1012.60 1013.30 1013.63 1013.69 1014.17 1014.44 1014.49 1014.53 1013.83 1012.30 1011.88 1011.30 1010.54 1009.65 1008.82 1008.40 1007.44 1005.66 1004.11 1002.98 1001.82 1000.26 998.66 996.84 994.95 993.25 992.05 990.40 989.58 988.51 987.64 986.12 984.29 982.91 981.20 980.29 979.46 978.51 978.33
1009.48 1009.99 1010.66 1011.75 1012.56 1013.23 1013.58 1013.67 1014.09 1014.45 1014.43 1014.36 1013.72 1013.34 1012.50 1011.88 1011.10 1010.29 1009.85 1009.01 1008.00 1006.58 1004.98 1003.78 1002.32 1000.81 999.29 997.54 995.79 994.04 992.45 990.83 989.32 988.31 986.56 985.04 983.93 982.67 980.07 978.84 977.82 977.66 977.97
1008.93 1010.01 1011.04 1012.05 1012.86 1013.36 1013.61 1014.03 1014.51 1014.94 1014.78 1014.44 1014.39 1014.49 1012.50 1012.91 1012.13 1011.37 1010.58 1009.46 1008.49 1007.06 1005.69 1004.42 1002.83 1001.21 999.62 997.82 996.16 994.42 992.48 990.25 988.87 987.44 986.11 985.16 984.27 982.47 979.91 978.19 977.86 977.81 977.96
1008.49 1009.92 1010.92 1011.75 1012.83 1013.20 1013.70 1014.09 1014.83 1014.98 1014.85 1014.54 1014.98 1014.35 1013.57 1013.22 1012.60 1012.07 1011.25 1010.04 1008.96 1007.64 1006.41 1005.11 1003.41 1001.76 1000.08 998.31 996.22 994.47 992.66 990.65 989.44 988.51 987.32 985.78 984.23 982.34 980.15 977.65 977.37 977.24 977.46
1008.72 1009.95 1011.22 1012.13 1012.25 1013.08 1013.19 1014.41 1014.62 1014.75 1014.50 1014.69 1014.94 1014.48 1013.84 1013.29 1012.76 1012.47 1012.03 1010.83 1009.52 1008.05 1006.67 1005.39 1003.75 1001.95 1000.37 998.91 996.95 995.36 993.40 991.36 990.15 988.72 987.12 985.20 983.09 980.72 978.80 977.45 977.11 977.50 977.81
1008.49 1010.13 1011.07 1011.63 1012.10 1012.42 1013.32 1014.01 1014.32 1014.57 1014.71 1015.06 1014.86 1014.48 1014.08 1013.49 1013.04 1012.63 1012.22 1011.34 1010.16 1008.64 1007.26 1005.86 1004.29 1002.57 1000.89 999.21 997.28 995.91 994.27 992.16 990.53 988.81 986.70 984.75 983.04 981.27 979.95 978.42 977.54 977.78 978.13
1008.56 1009.94 1010.68 1011.27 1011.79 1012.45 1013.50 1013.56 1013.93 1014.04 1014.66 1014.80 1014.56 1014.41 1013.98 1013.42 1013.17 1012.78 1012.25 1011.66 1010.58 1009.28 1007.84 1006.42 1004.82 1003.16 1001.34 999.78 997.86 996.21 994.65 992.61 991.27 989.22 986.81 985.76 984.55 982.89 981.19 979.42 978.55 978.64 978.69
1009.03 1009.97 1010.79 1011.46 1012.10 1012.63 1012.87 1013.50 1013.86 1014.17 1014.56 1014.61 1014.61 1014.18 1013.89 1013.63 1013.42 1012.98 1012.34 1011.79 1010.88 1009.69 1008.43 1006.94 1005.32 1003.75 1002.05 1000.31 998.84 997.15 995.39 993.45 992.09 990.72 989.29 988.03 986.23 984.89 983.63 982.35 980.77 979.67 979.53
Wind_Speed
15 13 11 9 8 6 6 6 7 8 9 10 10 10 12 13 14 14 15 16 18 19 19 20 22 21 15 14 14 15 15 15 20 17 17 18 21 23 22 17 11 13 12
15 13 11 9 8 7 6 6 6 8 8 9 10 11 12 13 13 14 16 16 18 20 20 21 22 16 21 18 15 19 16 18 17 22 17 17 21 24 23 17 11 8 11
15 13 11 10 8 6 6 6 6 7 8 8 9 11 12 13 14 14 15 17 18 19 20 21 22 21 20 16 18 17 15 14 16 16 18 16 15 19 14 13 13 12 10
15 13 11 10 8 6 5 6 6 6 8 9 9 11 12 13 14 14 15 17 19 19 21 21 22 21 21 21 18 18 16 16 16 15 16 16 14 21 10 10 10 7 9
15 13 11 8 6 5 5 5 5 5 6 9 10 11 12 12 10 14 17 19 21 22 21 21 21 23 30 28 16 17 18 15 15 15 14 15 14 15 10 7 5 7 11
14 12 10 9 7 5 4 4 5 6 7 8 10 10 12 10 19 23 23 18 20 21 20 20 21 24 24 33 34 37 29 19 20 15 15 16 16 16 8 8 7 6 9
14 12 11 9 7 5 4 4 5 6 7 8 9 10 13 14 21 25 27 18 19 20 21 20 18 16 22 20 27 34 32 34 34 23 21 20 18 16 13 8 4 3 8
14 13 11 10 8 5 5 4 5 5 6 8 10 11 12 12 22 25 28 20 18 21 20 20 21 21 21 21 20 21 22 22 22 18 21 20 22 19 17 8 3 5 8
13 12 11 9 8 6 3 4 4 5 6 8 9 12 13 15 23 26 25 18 18 20 19 20 20 21 27 33 23 22 23 18 22 34 35 36 36 32 20 5 6 6 10
13 11 9 7 6 5 4 2 3 5 7 7 11 11 15 15 22 25 24 14 18 16 20 20 25 23 31 32 22 19 19 20 17 17 17 22 25 23 31 19 7 9 9
13 12 10 7 6 5 4 0 3 5 6 7 10 12 14 14 16 24 27 16 15 17 15 16 15 30 34 34 34 20 19 21 18 15 15 14 13 12 11 10 11 10 11
13 12 9 7 5 5 4 2 1 4 6 8 10 11 10 13 19 22 29 30 30 17 17 15 17 33 35 34 28 30 33 29 13 12 13 13 13 11 12 11 12 11 13
13 11 9 8 6 5 4 3 1 2 4 7 9 10 11 11 11 25 27 30 29 19 15 25 34 34 30 24 26 27 24 13 13 13 14 14 12 11 12 13 13 15 18
12 11 9 7 6 5 4 3 2 2 4 7 8 10 11 11 11 13 13 14 19 17 20 15 22 25 25 18 14 14 10 11 12 13 12 12 12 11 12 13 12 11 12
12 10 10 7 6 5 4 3 2 1 5 7 8 9 10 11 13 23 22 16 14 18 17 12 13 13 13 12 12 12 11 11 13 12 12 11 11 11 11 9 9 10 12
13 9 8 6 4 4 4 3 2 2 8 9 13 11 9 18 25 26 28 27 26 27 11 12 13 14 13 14 13 13 12 14 12 12 10 11 11 11 11 10 8 9 12
12 12 9 7 5 4 3 2 3 4 6 7 11 13 17 19 22 24 26 26 24 20 10 12 13 14 14 13 13 12 14 12 14 11 11 11 8 10 11 9 9 11 15
11 15 9 8 7 6 5 4 3 3 5 6 9 12 17 20 19 22 25 20 13 14 11 12 13 14 15 14 14 14 13 13 12 12 11 11 9 10 9 9 11 14 12
11 9 9 8 6 6 5 5 4 3 1 4 6 8 12 20 16 18 21 10 12 13 12 13 13 14 15 15 15 15 16 13 13 12 11 11 10 9 11 12 12 11 13
10 15 11 8 8 6 5 5 4 2 1 3 4 6 7 8 9 10 10 10 10 11 12 13 13 14 14 14 14 14 14 13 13 11 12 11 11 10 13 11 7 9 12
10 10 12 7 6 5 5 5 4 2 1 2 4 5 13 5 7 8 9 9 10 11 12 13 14 14 14 15 15 14 15 14 14 13 13 12 11 11 12 6 4 10 10
10 9 8 8 7 6 5 5 3 2 1 2 4 4 12 5 6 8 10 10 10 10 10 12 12 13 14 16 17 17 17 17 16 14 14 13 12 11 10 3 5 7 6
10 11 9 8 7 9 7 4 3 2 2 2 3 4 5 5 6 8 10 10 10 11 11 11 13 14 14 15 16 17 18 18 16 15 14 13 11 10 9 6 4 6 8
11 11 10 8 7 7 6 5 4 3 1 1 3 3 4 5 7 9 9 10 10 11 11 11 12 18 17 17 16 18 17 17 15 16 19 14 13 13 10 8 6 4 7
10 10 9 8 8 7 6 5 4 3 1 1 2 3 4 5 6 8 9 9 10 11 13 13 11 18 20 24 23 28 30 31 25 25 16 17 17 18 14 10 2 7 5
10 9 8 7 6 6 5 5 4 3 1 1 2 3 4 5 6 8 8 9 10 11 14 11 14 21 23 19 21 27 32 34 30 30 19 16 17 16 13 14 15 5 8
Wind_Direction
176 174 179 185 190 207 231 257 268 279 283 289 299 299 295 293 291 287 283 282 278 277 274 272 270 269 265 260 258 258 257 262 266 266 271 280 277 281 262 249 251 259 268
171 171 181 180 188 208 226 250 268 280 289 298 306 299 293 291 293 291 290 286 284 283 282 279 276 275 270 267 263 262 262 262 269 277 278 261 265 272 260 254 252 248 263
166 172 177 187 190 204 235 260 270 282 294 300 297 295 298 299 297 293 291 289 288 285 283 280 278 275 272 269 262 264 267 269 270 267 266 272 273 277 256 256 261 257 258
169 174 180 184 186 206 225 248 265 289 301 299 295 292 292 295 297 296 294 294 289 284 281 276 274 270 269 269 263 264 261 260 261 265 269 269 259 270 265 268 262 266 262
169 173 177 173 180 200 235 253 279 294 289 286 293 297 298 300 295 301 298 294 290 289 284 279 274 270 268 263 261 258 259 260 260 263 258 260 265 264 253 256 276 295 302
168 169 164 171 177 202 224 261 280 274 283 295 296 304 306 303 304 302 300 296 296 294 290 285 282 277 268 267 264 261 257 254 258 261 271 272 269 279 269 264 276 287 306
163 162 168 171 179 195 216 249 264 284 299 298 302 308 306 304 304 306 308 299 297 295 292 290 285 275 273 266 266 266 267 266 262 264 262 257 266 272 284 257 246 251 266
164 164 169 172 177 181 210 246 269 291 300 309 311 304 299 304 308 309 306 304 297 291 290 288 284 279 274 270 266 262 258 250 253 260 261 263 261 259 269 267 237 264 273
169 170 170 170 166 175 196 240 279 296 311 301 298 304 304 301 304 307 310 303 292 297 290 287 280 276 276 276 274 272 270 253 253 257 260 256 267 252 240 229 240 259 282
166 163 157 160 160 166 175 244 318 305 297 303 310 307 298 292 292 310 309 299 297 297 289 280 277 277 276 277 274 275 273 274 251 256 257 259 260 249 248 246 220 251 275
145 146 149 158 166 165 165 344 303 305 311 312 311 308 296 299 303 309 313 307 302 301 309 303 294 293 290 283 278 274 276 282 254 256 257 249 254 244 237 230 225 228 253
140 143 148 156 176 157 153 143 253 308 317 324 316 306 313 315 314 312 318 320 318 317 308 305 299 300 293 285 274 274 274 277 258 235 245 246 238 225 224 221 227 222 230
143 142 155 158 168 161 161 131 95 355 333 326 314 320 319 320 312 316 323 328 326 321 307 322 322 314 294 286 289 283 279 272 274 234 233 242 246 239 240 236 236 231 245
139 148 150 163 159 167 148 127 93 352 338 314 328 322 320 322 323 324 332 332 328 322 331 327 319 332 334 326 298 299 278 270 263 265 239 235 246 237 231 220 226 232 249
149 151 151 155 165 144 114 118 96 303 305 324 326 321 329 328 328 339 344 342 332 331 342 333 329 338 336 336 329 329 322 305 302 244 245 241 244 235 230 227 234 244 244
147 153 150 148 145 118 106 119 106 327 347 338 326 325 334 335 336 341 346 347 340 350 342 340 342 333 337 334 333 329 323 321 317 319 296 246 226 221 231 228 227 247 251
148 147 140 141 138 116 98 80 55 12 356 320 341 336 352 346 347 349 348 345 337 351 353 347 334 338 328 335 330 330 319 318 315 306 298 290 272 234 236 237 245 246 239
137 139 138 141 138 135 138 119 86 36 347 331 321 345 2 353 350 356 355 343 334 349 352 342 335 330 332 330 331 328 322 318 322 314 301 289 282 282 244 240 243 242 196
143 137 133 132 135 139 140 128 124 126 238 289 313 348 355 347 346 358 360 350 336 334 342 338 334 330 334 327 332 330 328 321 322 313 299 289 281 287 265 242 236 206 181
140 139 137 140 143 140 143 129 116 102 4 329 347 339 319 349 353 348 347 341 335 331 338 332 333 330 333 329 335 329 324 321 322 311 309 311 303 289 257 227 204 171 180
139 135 138 133 130 141 124 111 104 123 51 336 337 323 350 348 338 340 335 340 334 329 332 328 330 330 333 330 338 334 328 333 334 328 321 309 298 286 288 187 165 171 174
132 136 141 133 147 133 123 112 126 127 61 14 321 319 347 345 345 339 333 331 327 325 324 323 325 330 334 329 342 341 337 343 339 331 317 308 298 288 292 175 144 159 151
131 130 138 147 133 135 119 133 136 124 73 13 320 330 344 349 345 337 327 324 323 324 324 326 324 329 333 333 347 347 341 349 339 331 321 314 312 312 317 296 123 143 159
131 142 145 141 144 132 134 145 136 119 53 310 328 333 339 344 340 330 323 323 321 323 321 328 325 330 330 335 347 353 346 353 348 341 337 338 334 332 321 277 179 167 165
135 143 147 149 149 137 145 140 141 137 173 274 345 329 341 347 340 331 328 322 320 325 325 326 327 332 337 337 349 357 356 1 3 356 354 356 353 354 347 340 192 182 156
136 141 139 140 137 144 141 146 141 145 178 337 320 334 343 343 329 325 327 324 325 322 324 325 325 334 334 339 354 358 2 4 9 5 5 5 8 8 4 2 0 6 188